GW2986 Weather Reports


Display with metric or nautical units.
time (UTC)temp
F
wind
direction
speed
MPH
gust
MPH
rain 1hr
in
rain 24hr
in
rain mn
in
humidity
%
barometer
mb
20260507144604 56 93 4.0 10.0 0.00 0.00 0.00 45 1012.0
20260507143059 54 85 6.0 10.0 0.00 0.00 0.00 48 1011.9
20260507141607 53 96 6.0 8.0 0.00 0.00 0.00 49 1011.7
20260507140057 52 82 3.0 4.0 0.00 0.00 0.00 52 1011.7
20260507134549 49 59 0.0 0.0 0.00 0.00 0.00 58 1011.6
20260507133030 47 59 0.0 0.0 0.00 0.00 0.00 59 1011.5
20260507131531 45 60 0.0 0.0 0.00 0.00 0.00 63 1011.3
20260507130033 44 59 0.0 0.0 0.00 0.00 0.00 65 1011.1
20260507124527 43 73 0.0 2.0 0.00 0.00 0.00 65 1011.0
20260507123035 42 88 0.0 0.0 0.00 0.00 0.00 66 1010.9
20260507121526 41 90 0.0 0.0 0.00 0.00 0.00 68 1010.6
20260507120022 0 0.0 0.0 0.00 0.00 0.00 1010.7
20260507114517 0 0.0 0.0 0.00 0.00 0.00 1010.8
20260507113059 0 0.0 0.0 0.00 0.00 0.00 1010.9
20260507111603 0 0.0 0.0 0.00 0.00 0.00 1011.0
20260507110042 36 75 0.0 0.0 0.00 0.00 0.00 72 1011.1
20260507104541 37 75 0.0 0.0 0.00 0.00 0.00 73 1011.2
20260507103040 37 77 0.0 0.0 0.00 0.00 0.00 73 1011.3
20260507101543 37 80 0.0 0.0 0.00 0.00 0.00 74 1011.2
20260507100040 36 81 0.0 0.0 0.00 0.00 0.00 74 1011.2
20260507094540 37 81 0.0 0.0 0.00 0.00 0.00 71 1011.2
20260507093041 38 82 0.0 0.0 0.00 0.00 0.00 70 1011.2
20260507091534 38 134 0.0 0.0 0.00 0.00 0.00 70 1011.3
20260507090015 39 134 0.0 0.0 0.00 0.00 0.00 67 1011.5
20260507084515 39 134 0.0 0.0 0.00 0.00 0.00 65 1011.5
20260507083011 40 134 0.0 0.0 0.00 0.00 0.00 64 1011.4
20260507081507 40 134 0.0 0.0 0.00 0.00 0.00 62 1011.7
20260507080002 42 134 0.0 0.0 0.00 0.00 0.00 58 1011.8
20260507074600 43 122 0.0 4.0 0.00 0.00 0.00 56 1012.0
20260507073056 46 141 5.0 10.0 0.00 0.00 0.00 50 1012.2
20260507071552 47 129 0.0 2.0 0.00 0.00 0.00 48 1012.3
20260507070044 48 145 0.0 2.0 0.00 0.00 0.00 44 1012.4
20260507064537 48 37 6.0 12.0 0.00 0.00 0.00 44 1012.6
20260507063033 47 108 0.0 8.0 0.00 0.00 0.00 46 1012.7
20260507061532 47 101 5.0 12.0 0.00 0.00 0.00 48 1012.9
20260507060028 46 54 0.0 7.0 0.00 0.00 0.00 52 1012.9
20260507054526 45 59 0.0 0.0 0.00 0.00 0.00 54 1013.1
20260507053027 44 177 0.0 0.0 0.00 0.00 0.00 57 1013.2
20260507051525 45 177 0.0 0.0 0.00 0.00 0.00 57 1013.3
20260507050013 45 178 0.0 0.0 0.00 0.00 0.00 55 1013.4
20260507044512 45 37 0.0 0.0 0.00 0.00 0.00 54 1013.6
20260507043011 45 8 2.0 8.0 0.00 0.00 0.00 54 1013.5
20260507041528 44 29 0.0 0.0 0.00 0.00 0.00 57 1013.6
20260507040008 44 28 0.0 2.0 0.00 0.00 0.00 57 1013.7
20260507034512 45 30 4.0 9.0 0.00 0.00 0.00 56 1013.8
20260507033009 45 313 6.0 11.0 0.00 0.00 0.00 55 1013.8
20260507031505 46 95 7.0 14.0 0.00 0.00 0.00 55 1014.1
20260507030046 47 156 8.0 16.0 0.00 0.00 0.00 52 1014.1
20260507024546 48 82 8.0 14.0 0.00 0.00 0.00 50 1014.2
20260507023032 49 150 5.0 12.0 0.00 0.00 0.00 48 1014.3
20260507021530 50 15 9.0 13.0 0.00 0.00 0.00 42 1014.5
20260507020030 53 181 0.0 0.0 0.00 0.00 0.00 33 1014.4
20260507014546 55 273 0.0 2.0 0.00 0.00 0.00 29 1014.3
20260507013040 55 213 2.0 10.0 0.00 0.00 0.00 28 1014.5
20260507011536 56 252 4.0 12.0 0.00 0.00 0.00 27 1014.5
20260507010027 56 65 2.0 13.0 0.00 0.00 0.00 27 1014.7
20260507004523 55 149 5.0 13.0 0.00 0.00 0.00 27 1014.9
20260507003011 56 224 6.0 18.0 0.00 0.00 0.00 27 1014.9
20260507001509 56 200 8.0 15.0 0.00 0.00 0.00 27 1015.0
20260507000020 56 115 4.0 17.0 0.00 0.00 0.00 27 1015.3
20260506234506 56 64 2.0 12.0 0.00 0.00 0.00 29 1015.5
20260506233004 56 191 6.0 10.0 0.00 0.00 0.00 28 1015.6
20260506231501 56 143 4.0 7.0 0.00 0.00 0.00 28 1015.8
20260506230059 55 18 4.0 10.0 0.00 0.04 0.00 29 1016.0
20260506224558 55 100 5.0 17.0 0.00 0.04 0.00 28 1016.3
20260506223101 56 158 4.0 13.0 0.00 0.04 0.00 29 1016.6
20260506221541 54 288 5.0 12.0 0.00 0.04 0.00 29 1016.7
20260506220038 55 180 6.0 20.0 0.00 0.04 0.00 28 1017.0
20260506214539 54 51 5.0 15.0 0.00 0.04 0.00 29 1017.2
20260506213036 53 255 6.0 21.0 0.00 0.04 0.00 28 1017.5
20260506211531 53 250 6.0 15.0 0.00 0.04 0.00 29 1017.8
20260506210036 52 77 7.0 21.0 0.00 0.04 0.00 30 1018.1
20260506204528 54 115 9.0 17.0 0.00 0.04 0.00 29 1018.3
20260506203008 54 86 5.0 19.0 0.00 0.04 0.00 29 1018.6
20260506201509 53 100 8.0 13.0 0.00 0.04 0.00 29 1018.8
20260506200136 52 136 9.0 16.0 0.00 0.05 0.00 29 1019.0
20260506194600 51 177 5.0 17.0 0.00 0.05 0.00 30 1019.4
20260506193051 51 21 5.0 18.0 0.00 0.05 0.00 33 1019.6
20260506191549 50 116 9.0 17.0 0.00 0.05 0.00 32 1019.8
20260506190047 50 317 9.0 15.0 0.00 0.07 0.00 33 1019.9
20260506184551 51 231 0.0 8.0 0.00 0.07 0.00 34 1020.1
20260506183043 49 134 6.0 17.0 0.00 0.07 0.00 36 1020.1
20260506181543 49 173 1.0 19.0 0.00 0.07 0.00 36 1020.4
20260506180048 48 98 13.0 20.0 0.00 0.10 0.00 38 1020.6
20260506174527 48 124 6.0 11.0 0.00 0.10 0.00 41 1020.7
20260506173024 46 160 6.0 14.0 0.00 0.10 0.00 42 1020.8
20260506171537 47 153 6.0 13.0 0.00 0.10 0.00 40 1020.9
20260506170021 45 53 7.0 11.0 0.00 0.10 0.00 42 1021.1
20260506164521 44 139 1.0 8.0 0.00 0.10 0.00 44 1021.2
20260506163022 45 139 3.0 8.0 0.00 0.10 0.00 44 1021.1
20260506161524 44 176 3.0 11.0 0.00 0.10 0.00 48 1021.2
20260506160014 43 300 4.0 9.0 0.00 0.10 0.00 48 1021.2
20260506154501 42 281 0.0 9.0 0.00 0.10 0.00 52 1021.2
20260506153103 42 318 7.0 11.0 0.00 0.10 0.00 52 1021.2
20260506151558 43 356 4.0 9.0 0.00 0.10 0.00 55 1021.2
20260506150056 41 295 4.0 10.0 0.00 0.10 0.00 60 1021.2